Retour au catalogue

STARLINK-31329

ActifCommunicationsVLEO
NORAD 59169·PAYLOAD·🇺🇸 United States

Lancé Mar 4, 2024 depuis Cape Canaveral Space Force Station

Loading…

Prochains Passages (prochaines 24 heures)

TLE

FraisSource: CelesTrak SupGP

Époque: Sep 14, 2026, 22:34 UTC

1 59169C 24044T   26257.94076389 -.00092981  00000+0 -33677-2 0  2577
2 59169  43.0004 118.4594 0001386 273.5670 189.4311 15.27624887    11

Suivez STARLINK-31329 en temps réel avec AllMySat

Download on the App Store